Location: 81360 Arifat, France
(43.7204°N, 2.3408°E)
Time: 06:55:06
(UTC+01:00)

Explorer 7 - All Passes

Search period start: 07 December 2025 00:00
Search period end: 17 December 2025 00:00
Orbit: 436 x 554 km, 50.3° (Epoch: 06 December)

Date Brightness Start Highest point End Pass type
(mag) Time Alt. Az. Time Alt. Az. Time Alt. Az.
07 Dec - 00:00:19 10° NW 00:03:22 28° N 00:06:28 10° ENE night (unlit)
07 Dec - 01:38:52 10° WNW 01:42:21 64° NNE 01:45:57 10° ESE night (unlit)
07 Dec - 03:17:49 10° W 03:20:42 23° SW 03:23:39 10° SSE night (unlit)
07 Dec - 20:18:44 10° SW 20:22:11 61° SSE 20:25:36 10° ENE visible
07 Dec - 21:57:40 10° W 22:00:54 35° NNW 22:04:07 10° NE night (unlit)
07 Dec - 23:37:01 10° NW 23:40:04 28° N 23:43:09 10° ENE night (unlit)
08 Dec - 01:15:34 10° WNW 01:19:03 64° NNE 01:22:37 10° ESE night (unlit)
08 Dec - 02:54:31 10° W 02:57:23 23° SW 03:00:19 10° SSE night (unlit)
08 Dec - 19:55:24 10° SW 19:58:51 61° SSE 20:02:17 10° ENE visible
08 Dec - 21:34:20 10° W 21:37:34 35° NNW 21:40:47 10° NE night (unlit)
08 Dec - 23:13:41 10° NW 23:16:43 28° N 23:19:48 10° ENE night (unlit)
09 Dec - 00:52:14 10° WNW 00:55:43 64° NNE 00:59:15 10° ESE night (unlit)
09 Dec - 02:31:12 10° W 02:34:02 23° SW 02:36:56 10° SSE night (unlit)
09 Dec - 19:32:01 10° SW 19:35:29 61° SE 19:38:55 10° ENE visible
09 Dec - 21:10:57 10° W 21:14:11 35° NNW 21:17:25 10° NE night (unlit)
09 Dec - 22:50:19 10° NW 22:53:21 27° N 22:56:25 10° ENE night (unlit)
10 Dec - 00:28:52 10° WNW 00:32:20 64° NNE 00:35:52 10° ESE night (unlit)
10 Dec - 02:07:49 10° W 02:10:40 23° SW 02:13:33 10° SSE night (unlit)
10 Dec - 19:08:36 10° SW 19:12:05 60° SE 19:15:31 10° ENE visible
10 Dec - 20:47:33 10° W 20:50:47 35° NNW 20:54:00 10° NE visible
10 Dec - 22:26:54 10° NW 22:29:56 27° N 22:33:00 10° ENE night (unlit)
11 Dec - 00:05:28 10° WNW 00:08:56 63° NNE 00:12:26 10° ESE night (unlit)
11 Dec - 01:44:25 10° W 01:47:15 23° SW 01:50:07 10° SSE night (unlit)
11 Dec - 18:45:09 10° SW 18:48:39 60° SE 18:52:06 10° ENE visible
11 Dec - 20:24:06 10° W 20:27:21 35° NNW 20:30:34 10° NE visible
11 Dec - 22:03:28 10° NW 22:06:30 27° N 22:09:32 10° ENE night (unlit)
11 Dec - 23:42:01 10° WNW 23:45:29 63° NNE 23:48:58 10° ESE night (unlit)
12 Dec - 01:20:59 10° W 01:23:47 23° SW 01:26:39 10° SSE night (unlit)
12 Dec - 18:21:40 10° SW 18:25:10 60° SSE 18:28:38 10° ENE visible
12 Dec - 20:00:37 10° W 20:03:52 35° NNW 20:07:06 10° NE visible
12 Dec - 21:39:59 10° NW 21:43:01 27° N 21:46:04 10° ENE night (unlit)
12 Dec - 23:18:33 10° WNW 23:22:00 63° NNE 23:25:29 10° ESE night (unlit)
13 Dec - 00:57:30 10° W 01:00:19 23° SW 01:03:09 10° SSE night (unlit)
13 Dec - 17:58:08 10° SW 18:01:39 60° SSE 18:05:07 10° ENE visible
13 Dec - 19:37:05 10° W 19:40:21 35° NNW 19:43:36 10° NE visible
13 Dec - 21:16:28 10° NW 21:19:30 27° N 21:22:32 10° ENE night (unlit)
13 Dec - 22:55:03 10° WNW 22:58:29 62° NNE 23:01:57 10° ESE night (unlit)
14 Dec - 00:34:00 10° W 00:36:48 23° SW 00:39:37 10° SSE night (unlit)
14 Dec - 17:34:34 10° SW 17:38:07 60° SSE 17:41:35 10° ENE daylight
14 Dec - 19:13:31 10° W 19:16:48 35° NNW 19:20:03 10° NE visible
14 Dec - 20:52:54 10° NW 20:55:57 27° N 20:58:59 10° ENE visible
14 Dec - 22:31:29 10° WNW 22:34:56 62° NNE 22:38:24 10° ESE night (unlit)
15 Dec - 00:10:26 10° W 00:13:15 23° SW 00:16:04 10° SSE night (unlit)
15 Dec - 17:10:58 10° SW 17:14:32 59° SE 17:18:01 10° ENE daylight
15 Dec - 18:49:55 10° W 18:53:13 36° NNW 18:56:29 10° NE visible
15 Dec - 20:29:19 10° NW 20:32:22 27° N 20:35:24 10° ENE visible
15 Dec - 22:07:54 10° WNW 22:11:21 62° NNE 22:14:48 10° ESE night (unlit)
15 Dec - 23:46:51 10° W 23:49:39 23° SW 23:52:28 10° SSE night (unlit)
16 Dec - 16:47:20 10° SW 16:50:55 59° SE 16:54:24 10° ENE daylight
16 Dec - 18:26:16 10° W 18:29:36 36° NNW 18:32:52 10° NE visible
16 Dec - 20:05:41 10° NW 20:08:45 27° N 20:11:47 10° ENE visible
16 Dec - 21:44:17 10° WNW 21:47:43 61° NNE 21:51:10 10° ESE night (unlit)
16 Dec - 23:23:13 10° W 23:26:02 23° SW 23:28:51 10° SSE night (unlit)
